Weather History for Elkins, WV

Change the Weather History Date:

Monday, November 11, 2013

  Actual Average Record
Temperature  
Mean Temperature 41 °F 44 °F  
Max Temperature 60 °F 55 °F 76 °F (1915)
Min Temperature 22 °F 32 °F 11 °F (1957)
Degree Days  
Heating Degree Days 24 22  
Month to date heating degree days 235 221  
Since 1 July heating degree days 736 812  
Cooling Degree Days 0 0  
Month to date cooling degree days 0 0  
Year to date cooling degree days 533 475  
Moisture  
Dew Point 17 °F    
Average Humidity 52    
Maximum Humidity 92    
Minimum Humidity 11    
Precipitation  
Precipitation T in 0.10 in 0.71 in (1947)
Month to date precipitation 0.76 1.19  
Year to date precipitation 37.35 40.48  
Snow  
Snow 0.00 in - - ()
Month to date snowfall T  
Since 1 September snowfall T  
Snow Depth 0.00 in    
Sea Level Pressure  
Sea Level Pressure 30.25 in    
Wind  
Wind Speed 4 mph (WSW)    
Max Wind Speed 21 mph    
Max Gust Speed 29 mph    
Visibility 10 miles    
Events      
T = Trace of Precipitation, MM = Missing Value Source: NWS Daily Summary

Daily Weather History Graph

Daily Weather History Graph

Search for Another Location

Airport:

Trip Planner

Search our weather history database for the weather conditions in past years. The results will help you decide how hot, cold, wet, or windy it might be!

Date:

Astronomy

Nov. 11, 2013 Rise Set
Actual Time 6:57 AM EST 5:08 PM EST
Civil Twilight 6:29 AM EST 5:36 PM EST
Nautical Twilight 5:57 AM EST 6:08 PM EST
Astronomical Twilight 5:26 AM EST 6:40 PM EST
Moon 1:45 PM EST (11/11) 12:44 AM EST (11/11)
Length of Visible Light 11h 07m
Length of Day
10h 10m
Waxing Gibbous, 66% of the Moon is Illuminated
Nov 11
Waxing Gibbous
Nov 17
Full
Nov 25
Last Quarter
Dec 2
New
Dec 9
First Quarter

Hourly Weather History & Observations

Time (EST) Temp. Dew Point Humidity Pressure Visibility Wind Dir Wind Speed Gust Speed Precip Events Conditions
12:51 AM 27.0 °F 21.9 °F 81% 30.37 in 10.0 mi Calm Calm - N/A   Clear
1:51 AM 27.0 °F 21.9 °F 81% 30.37 in 10.0 mi Calm Calm - N/A   Clear
2:51 AM 25.0 °F 21.9 °F 88% 30.35 in 10.0 mi Calm Calm - N/A   Clear
3:51 AM 24.1 °F 21.0 °F 88% 30.34 in 10.0 mi Calm Calm - N/A   Clear
4:51 AM 23.0 °F 19.9 °F 88% 30.33 in 10.0 mi Calm Calm - N/A   Clear
5:51 AM 23.0 °F 19.0 °F 85% 30.36 in 10.0 mi Calm Calm - N/A   Clear
6:51 AM 24.1 °F 21.0 °F 88% 30.37 in 10.0 mi Calm Calm - N/A   Clear
7:51 AM 26.1 °F 24.1 °F 92% 30.37 in 10.0 mi Calm Calm - N/A   Clear
8:51 AM 30.0 °F 26.1 °F 85% 30.36 in 10.0 mi Calm Calm - N/A   Clear
9:51 AM 37.0 °F 30.0 °F 76% 30.33 in 10.0 mi Calm Calm - N/A   Overcast
10:51 AM 43.0 °F 28.0 °F 56% 30.30 in 10.0 mi Calm Calm - N/A   Overcast
11:51 AM 48.0 °F 27.0 °F 44% 30.27 in 10.0 mi Calm Calm - N/A   Overcast
12:51 PM 53.1 °F 24.1 °F 32% 30.22 in 10.0 mi Calm Calm - N/A   Mostly Cloudy
1:51 PM 57.9 °F 8.1 °F 14% 30.17 in 10.0 mi WSW 8.1 mph - N/A   Overcast
2:51 PM 57.9 °F 3.0 °F 11% 30.16 in 10.0 mi West 10.4 mph 18.4 mph N/A   Overcast
3:51 PM 57.0 °F 3.9 °F 12% 30.16 in 10.0 mi West 11.5 mph - N/A   Overcast
4:51 PM 55.9 °F 5.0 °F 13% 30.16 in 10.0 mi WSW 10.4 mph 17.3 mph N/A   Overcast
5:51 PM 54.0 °F 9.0 °F 17% 30.16 in 10.0 mi Variable 5.8 mph - N/A   Overcast
6:51 PM 53.1 °F 10.0 °F 18% 30.14 in 10.0 mi SSW 5.8 mph - N/A   Overcast
7:51 PM 54.0 °F 12.0 °F 19% 30.13 in 10.0 mi SW 6.9 mph - N/A   Overcast
8:51 PM 54.0 °F 10.0 °F 17% 30.11 in 10.0 mi SW 6.9 mph 16.1 mph N/A   Overcast
9:51 PM 54.0 °F 10.9 °F 18% 30.09 in 10.0 mi SW 8.1 mph 17.3 mph N/A   Overcast
10:51 PM 54.0 °F 10.9 °F 18% 30.08 in 10.0 mi WSW 11.5 mph 17.3 mph N/A   Overcast
11:51 PM 53.1 °F 17.1 °F 24% 30.06 in 10.0 mi WSW 15.0 mph 28.8 mph 0.00 in   Overcast